Location: Chac�
(47.2167°N, 0.0667°E)
Time: 23:47:36
(UTC+00:00)

Daily predictions for brighter satellites

Satellite Brightness Start Highest point End
(mag) Time Altitude Azimuth Time Altitude Azimuth Time Altitude Azimuth
Cosmos 1459 Rocket 4.5 20:27:42 10° N 20:33:28 44° ENE 20:39:12 10° SE
Lacrosse 5 rocket 1.7 20:31:32 10° SSW 20:34:52 32° SE 20:38:08 10° ENE
USA 81 4.1 20:29:53 10° N 20:35:11 74° E 20:40:26 10° S
Cosmos 2333 Rocket 3.4 20:31:45 10° SSE 20:36:08 23° ESE 20:40:30 10° NE
Cosmos 1975 Rocket 3.4 20:33:06 10° SSE 20:37:16 47° E 20:41:30 10° NNE
Cosmos 2219 Rocket 3.5 20:34:57 10° SE 20:39:00 20° E 20:43:04 10° NE
Resurs 01 Rocket 1.8 20:38:14 10° S 20:42:38 74° WSW 20:47:03 10° NNW
Cosmos 1844 4.0 20:38:16 10° NNW 20:43:46 56° ENE 20:49:16 10° SE
FALCON 9 DEB 3.0 20:40:29 10° SW 20:43:54 72° SSE 20:47:19 10° ENE
ATLAS 3B R/B 3.2 20:47:19 10° S 20:53:09 36° ESE 20:59:10 10° NE
NOSS 3-2 (C) 4.3 20:48:38 10° WSW 20:54:15 56° NW 21:00:49 10° NE
Cosmos 1452 Rocket 3.7 20:49:50 10° SSW 20:55:07 79° WNW 21:00:26 10° NNE
Cosmos 1953 2.4 20:52:24 10° N 20:56:30 70° E 21:00:31 10° SSE
KORONAS-FOTON 3.8 20:53:45 10° S 20:57:31 68° E 21:01:17 10° NNE
Cosmos 2360 Rocket 2.2 20:56:37 10° SSW 21:02:14 74° ESE 21:07:53 10° NNE
Cosmos 1850 Rocket 4.4 20:58:16 10° NNW 21:03:32 65° WSW 21:08:42 10° S
SL-16 R/B 3.1 20:59:32 10° SW 21:05:05 54° WNW 21:10:40 10° NNE
Cosmos 2322 Rocket 2.7 21:00:01 10° SW 21:05:41 66° WNW 21:11:24 10° NNE
Cosmos 1674 2.6 21:01:59 10° S 21:05:42 85° E 21:09:25 10° N
Cosmos 1726 4.3 21:02:52 10° NW 21:05:47 23° W 21:08:42 10° SW
Geosat 4.3 21:02:17 11° SE 21:07:04 60° NE 21:12:01 10° NNW
Cosmos 2061 Rocket 4.4 21:01:12 10° N 21:07:28 52° ENE 21:13:17 12° SSE
ERS-1 Rocket 3.3 21:04:15 11° SE 21:08:56 53° ENE 21:13:50 10° N
Spot 2 Rocket 3.5 21:05:57 10° SSE 21:10:59 80° ENE 21:16:06 10° NNW
Cosmos 2123 Rocket 4.4 21:05:11 10° SSE 21:11:09 47° E 21:17:11 10° NNE
Cosmos 1331 Rocket 4.0 21:09:11 10° SSW 21:14:23 73° ESE 21:19:41 10° NNE
SPOT 1/Viking Rocket 3.9 21:12:31 10° S 21:17:37 66° WSW 21:22:45 10° NNW
Cosmos 1544 Rocket 3.6 21:13:54 10° N 21:18:23 76° E 21:22:21 13° SSE
Meteor 1-16 Rocket 4.3 21:13:42 10° NNW 21:19:09 71° W 21:24:26 10° S
ARIANE 5 R/B 2.6 21:15:26 12° SSE 21:19:35 84° ENE 21:24:06 10° NNW
Aureole 1 Rocket 4.3 21:13:44 10° NNW 21:19:43 78° WSW 21:27:03 11° SSE
Cosmos 1300 3.5 21:16:10 10° N 21:19:44 37° ENE 21:22:22 16° SE
USA 215 4.4 21:15:29 10° ENE 21:19:59 19° ESE 21:23:57 12° SSE
Cosmos 2100 Rocket 4.2 21:16:04 10° N 21:22:26 78° W 21:28:44 10° S
Cosmos 1455 Rocket 3.6 21:18:29 10° NNW 21:22:54 60° W 21:27:17 10° S
BREEZE-M DEB (TANK) 2.5 21:22:35 10° WSW 21:25:06 74° SSE 21:30:36 10° ENE
FALCON 9 DEB 3.3 21:23:30 10° SSW 21:26:27 39° SE 21:29:25 10° ENE
Cosmos 2322 3.8 21:21:57 10° S 21:27:27 56° ESE 21:32:59 10° NE
SL-8 R/B 4.1 21:23:02 10° WNW 21:27:40 48° SSW 21:31:09 17° SE
COSMOS 2428 3.2 21:22:46 10° S 21:28:04 40° ESE 21:33:23 10° NE
Cosmos 2278 Rocket 3.4 21:25:16 10° NNW 21:30:21 32° NE 21:35:15 11° ESE
Cosmos 1340 2.7 21:27:18 13° S 21:30:33 59° E 21:34:16 10° NNE
CENTAUR R/B 4.4 21:25:03 10° W 21:30:52 37° NNW 21:37:43 10° NE
Cosmos 1900 4.5 21:28:36 10° NW 21:33:28 67° WSW 21:37:11 17° SSE
Cosmos 1844 Rocket 3.2 21:28:41 10° NW 21:34:13 54° WSW 21:39:09 13° S
Cosmos 1302 Rocket 4.1 21:29:49 10° S 21:34:57 57° ESE 21:40:05 10° NNE
OPS 8737 4.4 21:31:00 10° SW 21:35:05 83° SE 21:38:13 10° NE
BREEZE-M DEB (TANK) 2.7 21:32:30 10° WNW 21:35:36 37° SW 21:36:28 24° S
Cosmos 2173 Rocket 4.4 21:30:40 10° NNW 21:37:00 66° W 21:43:17 10° S
Terra 1.9 21:36:58 17° SSE 21:40:34 72° ENE 21:45:20 10° N
Cosmos 2016 Rocket 4.0 21:34:36 10° N 21:40:44 89° W 21:46:04 14° S
SPOT 5 3.0 21:39:05 15° S 21:43:22 80° WSW 21:48:16 10° NNW
Cosmos 1461 4.4 21:40:04 10° WNW 21:43:37 27° WSW 21:46:29 13° SSW
FALCON 9 DEB 2.7 21:40:35 10° SW 21:43:40 75° SSE 21:46:46 10° ENE
ATLAS CENTAUR R/B 1.8 21:45:10 10° NW 21:49:29 62° WSW 21:52:25 21° SSE
FALCON 9 DEB 2.7 21:47:10 10° SW 21:50:15 67° SSE 21:53:23 10° ENE
Cosmos 1536 Rocket 3.5 21:48:37 14° S 21:52:22 84° E 21:56:50 10° N
Cosmos 1025 Rocket 3.8 21:48:57 10° SSW 21:53:14 52° WNW 21:57:31 10° N
FALCON 9 DEB 2.7 21:50:45 10° WSW 21:53:51 85° SE 21:56:58 10° ENE
Cosmos 1725 Rocket 4.0 21:48:13 10° N 21:54:26 82° W 21:59:29 16° S
USA 267 4.3 21:49:07 10° E 21:55:15 45° NNE 22:01:24 10° NW
Cosmos 1867 3.8 21:50:24 10° NNW 21:55:54 68° NE 21:59:50 19° SE
Cosmos 389 Rocket 3.4 21:52:53 10° N 21:56:04 34° ENE 21:57:31 23° ESE
Cosmos 1626 3.3 21:53:19 10° SSW 21:56:49 41° WNW 22:00:21 10° N
Cosmos 1346 Rocket 3.5 21:55:09 24° SE 21:56:58 36° E 22:00:41 10° NNE
Cosmos 2228 3.5 21:55:01 10° N 21:59:18 48° ENE 22:01:42 23° SE
Cosmos 1943 Rocket 4.5 21:56:57 10° N 22:00:01 15° NE 22:03:05 10° ENE
Meteor 2-10 Rocket 3.6 21:58:35 10° N 22:03:38 62° ENE 22:06:40 23° SSE
DNEPR-1 R/B 3.9 22:00:55 10° NW 22:05:01 51° WSW 22:07:27 24° S
SL-4 R/B 2.7 22:04:16 25° S 22:05:30 29° SE 22:08:53 10° E
Cosmos 1980 4.5 22:06:14 22° SSE 22:08:57 34° ESE 22:14:01 10° NE
Cosmos 968 Rocket 3.4 22:05:11 10° NNW 22:10:20 83° WSW 22:13:27 24° SSE
Cosmos 1486 Rocket 4.0 22:06:01 10° NNW 22:11:16 78° ENE 22:14:24 25° SSE
Meteor 2-5 Rocket 3.7 22:07:07 13° SSW 22:12:04 82° W 22:17:44 10° N
SL-24 R/B 4.4 22:08:47 10° N 22:13:38 86° W 22:17:02 20° S
Lacrosse 5 rocket 2.4 22:10:25 10° WSW 22:13:54 41° NNW 22:17:19 10° NE
Cosmos 2333 Rocket 2.7 22:14:13 10° SW 22:19:55 64° WNW 22:25:37 10° NNE
Cosmos 1992 Rocket 4.1 22:16:47 22° S 22:20:02 59° ESE 22:25:12 10° NNE
Cosmos 2219 Rocket 2.5 22:16:43 10° SW 22:22:23 69° WNW 22:28:04 10° NNE
H-2A R/B 3.7 22:22:38 10° N 22:26:42 64° WNW 22:29:36 18° SSW
Cosmos 1354 Rocket 4.5 22:21:26 10° NNW 22:26:42 55° ENE 22:29:48 24° SE
Iridium 2 3.9 22:30:01 36° SE 22:31:12 52° E 22:34:52 10° NNE
Spot 4 4.2 22:33:32 27° SE 22:35:57 54° ENE 22:40:37 10° N
SL-16 R/B 3.7 22:38:05 18° ESE 22:39:29 20° E 22:43:30 10° NE
Cosmos 2237 Rocket 2.3 22:38:58 26° S 22:41:57 56° ESE 22:47:28 10° NE
ATLAS 3B R/B 3.3 22:37:06 10° WSW 22:43:34 57° NW 22:50:17 10° NE
Cosmos 2058 Rocket 3.4 22:39:13 10° N 22:43:36 55° ENE 22:45:21 32° SE
Cosmos 1455 2.1 22:41:51 10° N 22:45:41 74° E 22:46:51 42° SSE
Cosmos 1726 Rocket 3.5 22:41:14 10° N 22:45:44 88° WSW 22:47:36 35° S
Meteor 1-24 Rocket 4.3 22:43:30 14° SSW 22:48:01 51° WNW 22:53:24 10° N
Cosmos 2369 Rocket 4.5 22:46:29 10° N 22:50:28 19° NE 22:54:25 10° E
NOSS 0 Rocket 3.9 22:46:59 18° SSW 22:51:49 85° ESE 22:58:06 10° NNE
SJ 16-02 3.0 22:56:52 10° N 23:00:32 25° ENE 23:03:04 16° ESE
Cosmos 1606 Rocket 4.2 22:56:36 10° NNW 23:00:54 48° W 23:02:51 28° SSW
FALCON 9 DEB 4.2 22:59:10 10° W 23:02:10 41° NNW 23:05:11 10° NE
USA 215 3.2 22:57:17 10° NE 23:03:49 68° SE 23:10:19 10° SW
GEOS 3 Rocket 3.6 23:02:53 29° SE 23:05:43 83° SW 23:11:07 10° NW
Cosmos 1892 Rocket 3.6 23:03:57 34° SSW 23:05:51 77° W 23:10:20 10° N
Cosmos 1891 Rocket 4.5 23:02:48 10° N 23:08:59 81° W 23:12:19 30° S
Cosmos 1503 Rocket 4.3 23:05:45 10° NNW 23:11:03 58° WSW 23:13:21 32° S
COBE Rocket 3.9 23:09:26 35° SSE 23:11:37 85° ENE 23:16:34 10° N
COSMOS 2428 4.0 23:07:01 10° WSW 23:12:21 39° NW 23:17:45 10° NNE
Cosmos 1513 Rocket 4.5 23:06:56 10° N 23:13:01 78° W 23:16:12 30° S
Cosmos 2278 Rocket 2.7 23:09:12 10° NW 23:14:39 49° WSW 23:17:05 30° SSW
ALOS 2 2.6 23:14:25 39° SSE 23:15:59 74° ENE 23:20:22 10° N
Cosmos 2297 4.3 23:10:30 10° NNW 23:15:59 50° ENE 23:19:34 21° ESE
Terra 4.1 23:16:09 10° WSW 23:18:50 15° W 23:21:32 10° NW
Cosmos 1184 Rocket 3.1 23:18:24 49° WSW 23:18:58 59° WNW 23:22:11 10° N
Meteor 1-21 Rocket 4.2 23:20:47 31° SSW 23:23:37 88° WNW 23:29:24 10° N
Cosmos 192 4.5 23:28:31 28° SW 23:31:07 70° WNW 23:36:03 10° NNE
SAR-Lupe-2 3.8 23:30:46 10° NNE 23:34:17 51° E 23:34:38 49° SE
Cosmos 1626 Rocket 3.5 23:32:57 44° S 23:34:17 74° E 23:38:43 10° NNE
Cosmos 1607 4.4 23:31:01 10° NW 23:37:07 47° WSW 23:39:37 31° S
USA 267 3.2 23:32:01 13° ESE 23:37:55 88° NE 23:44:31 10° NW
BREEZE-M DEB (TANK) 3.3 23:36:06 10° W 23:39:38 70° N 23:50:17 10° E
Thor Agena Rocket 4.0 23:34:42 10° NNE 23:39:47 47° E 23:41:35 33° SSE
Cosmos 1602 Rocket 3.7 23:40:47 43° SSE 23:42:04 64° E 23:46:31 10° NNE
SL-4 R/B 2.0 23:40:53 10° WSW 23:44:53 72° NNW 23:48:35 10° ENE
Cosmos 1943 Rocket 2.4 23:39:26 10° NNW 23:44:55 64° ENE 23:48:02 26° SE
Cosmos 1441 Rocket 3.8 23:44:18 35° SW 23:45:28 48° WNW 23:49:11 10° N
Cosmos 1892 4.3 23:46:05 23° ESE 23:46:49 24° E 23:49:58 10° NE
Cosmos 1758 Rocket 4.1 23:48:38 36° SE 23:49:49 46° E 23:54:03 10° NNE
Cosmos 724 4.3 23:43:54 10° NW 23:50:06 80° WSW 23:53:08 31° SSE
NOSS 2-3 (C) 4.1 23:51:20 37° SE 23:51:44 38° ESE 23:56:05 10° NE
Lacrosse 5 rocket 4.0 23:51:09 10° NW 23:53:43 18° N 23:56:17 10° NE
Meteor 1-4 Rocket 2.6 23:51:00 10° NNW 23:54:25 55° W 23:54:41 53° WSW
Cosmos 1703 4.4 23:54:22 28° WSW 23:55:43 37° WNW 23:59:25 10° N
